Regional Weather Roundup
Issued by NWS Newport/Morehead, NC

Current Version | Previous Version | Graphics & Text | Print | Product List | Glossary On
Versions: 1 2 3 4 5 6 7 8 9 10 11 12 13 14 15 16 17 18 19 20 21 22 23 24 25 26 27 28 29 30 31 32 33 34 35 36 37 38 39 40 41 42 43 44 45 46 47 48 49 50
000 ASUS42 KMHX 010625 RWRMHX WEATHER ROUNDUP FOR EASTERN NORTH CAROLINA NATIONAL WEATHER SERVICE NEWPORT/MOREHEAD CITY NC 200 AM EDT TUE SEP 01 2015 NOTE: "FAIR" INDICATES FEW OR NO CLOUDS BELOW 12,000 FEET WITH NO SIGNIFICANT WEATHER AND/OR OBSTRUCTIONS TO VISIBILITY NCZ015>017-031-032-045>047-102-103-010700- NORTH COAST CITY SKY/WX TMP DP RH WIND PRES REMARKS EDENTON CLOUDY 71 70 98 N3 30.05F ELIZABETH CITY CLOUDY 73 72 96 CALM 30.05F KITTY HAWK CLOUDY 75 73 91 N3 30.04F MANTEO CLOUDY 74 73 99 CALM 30.05F $$ NCZ045>047-081-094-103-104-010700- CENTRAL COAST CITY SKY/WX TMP DP RH WIND PRES REMARKS FRISCO FAIR 79 75 87 SW9 30.03F SWANQUARTER NOT AVBL $$ NCZ095-097-098-100-101-010700- SOUTHERN COAST CITY SKY/WX TMP DP RH WIND PRES REMARKS BEAUFORT MOCLDY 78 77 96 CALM 30.02F CEDAR ISLAND NOT AVBL JACKSONVILLE CLOUDY 75 73 93 NW6 30.04S PINEY ISLAND MOCLDY N/A N/A N/A SW3 30.02F WILMINGTON MOCLDY 74 73 97 W5 30.05S $$ NCZ011>013-027>030-043-044-078>080-089-090>093-098-010700- COASTAL PLAIN CITY SKY/WX TMP DP RH WIND PRES REMARKS AHOSKIE CLOUDY 70 69 98 N3 30.06F FOG CLINTON CLOUDY 73 73 100 W3 30.06F FOG ELIZABETHTOWN CLOUDY 74 74 100 W3 30.06F GOLDSBORO FOG 73 73 100 W3 30.04F VSB 1 GREENVILLE CLOUDY 73 73 100 CALM 30.07S HAVELOCK CLOUDY 77 75 93 NW5 30.04F KENANSVILLE N/A 74 73 95 CALM 30.07S KINSTON CLOUDY 75 74 98 CALM 30.06F NEW BERN CLOUDY 75 73 93 CALM 30.04F RICHLANDS CLOUDY 73 70 88 CALM 30.05F ROCKY MOUNT CLOUDY 73 72 96 N3 30.06F FOG WASHINGTON CLOUDY 73 73 98 CALM 30.04F WHITEVILLE FOG 74 73 96 CALM 30.06F VSB 1/2 $$ AMZ130-135-150-152-154-156-158-170-250-252-270-ANZ085-086-088-633-658-670-010700- MARINE OBSERVATIONS STATION/POSITION TIME TEMP WIND PRES WAVE SWELL AIR SEA DIR/SP/G HT/PER HT/PER (UTC) (F) (DEG/KT/KT) (MB) (FT/S) (FT/S) CHESAPEAKE LIGHT 0600 76 190/ 4/ 4 1018.6 64 E VA BEACH 0550 77 78 90/ 6/ 8 1017.8 3/ 8 3/ 8 DUCK 0600 76 78 80/ 7/ 8 1016.8 2 E DUCK 0511 78 N/A 2/10 OREGON INLET 0600 78 80 CALM / 2 1017.1 13E OREGON INLT 0600 78 N/A 3/ 8 HATTERAS CG 0600 80 80 190/ 3/ 6 1016.6 DIAMOND BUOY 0550 81 84 180/ 14/ 16 1017.0 4/ 8 2/ 8 CAPE LOOKOUT 0600 78 230/ 4/ 5 1016.2 BEAUFORT LAB 0600 78 79 250/ 1/ 3 1015.9 30 SE NEW RVR IN 0508 80 81 250/ 12/ 17 1017.1 30 SE NEW RVR IN 0525 81 N/A 5/ 6 27 SE WRIGHTSVLE 0600 76 81 290/ 12/ 16 N/A 5 SE WRIGHTSVLE 0508 77 81 300/ 10/ 14 1017.4 225 S CAPE HAT 0550 84 84 220/ 12/ 14 1019.0 4/ 6 3/ 6 41 SE CHARLESTON 0550 81 82 240/ 8/ 8 1018.2 3/ 8 3/ 8 $$

USA.gov is the U.S. government's official web portal to all federal, state and local government web resources and services.